timestamp,surface_pressure_avg,surface_temp_avg,battery_voltage,lat,long
2020-07-30 00:09:01+00:00,220.628,15.4,12.89,47.84626,-54.09684
2020-07-30 00:19:01+00:00,216.8831,15.29,12.73,47.84626,-54.09684
2020-07-30 00:29:01+00:00,214.088,15.2,12.73,47.84626,-54.09684
2020-07-30 00:39:01+00:00,214.9365,15.1,12.73,47.84626,-54.09684
2020-07-30 00:49:01+00:00,214.363,15.12,12.73,47.84626,-54.09684
2020-07-30 00:59:01+00:00,213.0447,15.29,12.73,47.84626,-54.09684
2020-07-30 01:09:01+00:00,213.0315,15.93,12.73,47.84626,-54.09684
2020-07-30 01:19:01+00:00,214.198,16.33,12.73,47.84626,-54.09684
2020-07-30 01:29:01+00:00,213.2597,16.83,12.73,47.84626,-54.09684
2020-07-30 01:39:01+00:00,210.0298,16.42,12.73,47.84626,-54.09684
2020-07-30 01:49:01+00:00,206.3764,16.0,12.73,47.84626,-54.09684
2020-07-30 01:59:01+00:00,207.1497,15.94,12.73,47.84626,-54.09684
2020-07-30 02:09:01+00:00,208.9365,16.22,12.73,47.84626,-54.09684
2020-07-30 02:19:01+00:00,206.1631,16.44,12.73,47.84626,-54.09684
2020-07-30 02:29:01+00:00,204.3015,16.7,12.73,47.84626,-54.09684
2020-07-30 02:39:01+00:00,207.8448,16.6,12.73,47.84626,-54.09684
2020-07-30 02:49:01+00:00,209.9331,16.4,12.73,47.84626,-54.09684
2020-07-30 02:59:01+00:00,209.8448,16.5,12.73,47.84626,-54.09684
2020-07-30 03:09:01+00:00,212.0314,16.3,12.73,47.84626,-54.09684
2020-07-30 03:19:01+00:00,213.5931,16.3,12.73,47.84626,-54.09684
2020-07-30 03:29:01+00:00,215.1764,16.31,12.73,47.84626,-54.09684
2020-07-30 03:39:01+00:00,218.5214,16.5,12.73,47.84626,-54.09684
2020-07-30 03:49:01+00:00,221.9881,16.68,12.73,47.84626,-54.09684
2020-07-30 03:59:01+00:00,221.9615,16.85,12.73,47.84626,-54.09684
2020-07-30 04:09:01+00:00,223.4381,16.41,12.73,47.84626,-54.09684
2020-07-30 04:19:01+00:00,227.2131,15.6,12.73,47.84626,-54.09684
2020-07-30 04:29:01+00:00,235.5198,15.81,12.73,47.84626,-54.09684
2020-07-30 04:39:01+00:00,242.7631,16.0,12.73,47.84626,-54.09684
2020-07-30 04:49:01+00:00,244.6298,16.0,12.73,47.84626,-54.09684
2020-07-30 04:59:01+00:00,247.6864,15.9,12.73,47.84626,-54.09684
2020-07-30 05:09:01+00:00,253.0514,15.78,12.73,47.84626,-54.09684
2020-07-30 05:19:01+00:00,258.6414,15.6,12.73,47.84626,-54.09684
2020-07-30 05:29:01+00:00,261.4614,15.4,12.73,47.84626,-54.09684
2020-07-30 05:39:01+00:00,267.3164,15.0,12.73,47.84626,-54.09684
2020-07-30 05:49:01+00:00,275.0696,14.9,12.73,47.84626,-54.09684
2020-07-30 05:59:01+00:00,281.7947,15.0,12.73,47.84626,-54.09684
2020-07-30 06:09:01+00:00,289.4397,15.02,12.73,47.84626,-54.09684
2020-07-30 06:19:01+00:00,294.9114,15.0,12.73,47.84626,-54.09684
2020-07-30 06:29:01+00:00,300.9381,14.99,12.73,47.84626,-54.09684
2020-07-30 06:39:01+00:00,304.6481,14.99,12.73,47.84626,-54.09684
2020-07-30 06:49:01+00:00,308.6146,15.0,12.73,47.84626,-54.09684
2020-07-30 06:59:01+00:00,309.8713,14.9,12.73,47.84626,-54.09684
2020-07-30 07:09:01+00:00,312.9513,14.9,12.73,47.84626,-54.09684
2020-07-30 07:19:01+00:00,312.2614,14.9,12.65,47.84626,-54.09684
2020-07-30 07:29:01+00:00,312.8931,14.9,12.65,47.84626,-54.09684
2020-07-30 07:39:01+00:00,316.4514,14.9,12.65,47.84626,-54.09684
2020-07-30 07:49:01+00:00,321.4014,14.9,12.65,47.84626,-54.09684
2020-07-30 07:59:01+00:00,322.2046,14.9,12.65,47.84626,-54.09684
2020-07-30 08:09:01+00:00,320.338,14.9,12.65,47.84626,-54.09684
2020-07-30 08:19:01+00:00,321.4498,14.9,12.65,47.84626,-54.09684
2020-07-30 08:29:01+00:00,322.3914,14.9,12.65,47.84626,-54.09684
2020-07-30 08:39:01+00:00,317.8514,14.9,12.65,47.84626,-54.09684
2020-07-30 08:49:01+00:00,310.7864,14.9,12.65,47.84626,-54.09684
2020-07-30 08:59:01+00:00,308.5797,14.9,12.65,47.84626,-54.09684
2020-07-30 09:09:01+00:00,307.9163,14.9,12.65,47.84626,-54.09684
2020-07-30 09:19:01+00:00,304.328,15.18,12.65,47.84626,-54.09684
2020-07-30 09:29:01+00:00,298.2114,15.0,12.65,47.84626,-54.09684
2020-07-30 09:39:01+00:00,293.1147,14.9,12.65,47.84626,-54.09684
2020-07-30 09:49:01+00:00,287.5597,15.17,12.65,47.84626,-54.09684
2020-07-30 09:59:01+00:00,283.848,15.2,12.65,47.84626,-54.09684
2020-07-30 10:09:01+00:00,280.498,15.1,12.65,47.84626,-54.09684
2020-07-30 10:19:01+00:00,274.3864,15.1,12.65,47.84626,-54.09684
2020-07-30 10:29:01+00:00,267.1947,15.28,12.65,47.84626,-54.09684
2020-07-30 10:39:01+00:00,264.2914,15.67,12.65,47.84626,-54.09684
2020-07-30 10:49:01+00:00,253.9747,15.81,12.65,47.84626,-54.09684
2020-07-30 10:59:01+00:00,241.9281,15.91,12.65,47.84626,-54.09684
2020-07-30 11:09:01+00:00,237.5864,15.9,12.65,47.84626,-54.09684
2020-07-30 11:19:01+00:00,234.6714,15.8,12.65,47.84626,-54.09684
2020-07-30 11:29:01+00:00,230.1881,15.85,12.65,47.84626,-54.09684
2020-07-30 11:39:01+00:00,225.8015,16.5,12.65,47.84626,-54.09684
2020-07-30 11:49:01+00:00,223.3664,16.25,12.65,47.84626,-54.09684
2020-07-30 11:59:01+00:00,219.6964,16.06,12.65,47.84626,-54.09684
2020-07-30 12:09:01+00:00,215.9631,16.74,12.65,47.84626,-54.09684
2020-07-30 12:19:01+00:00,214.8164,17.0,12.73,47.84626,-54.09684
2020-07-30 12:29:01+00:00,214.5014,16.77,12.73,47.84626,-54.09684
2020-07-30 12:39:01+00:00,210.713,17.0,12.73,47.84626,-54.09684
2020-07-30 12:49:01+00:00,208.6914,16.8,12.73,47.84626,-54.09684
2020-07-30 12:59:01+00:00,208.8181,16.6,12.73,47.84626,-54.09684
2020-07-30 13:09:01+00:00,207.1165,16.66,12.73,47.84626,-54.09684
2020-07-30 13:19:01+00:00,204.4632,16.57,12.81,47.84626,-54.09684
2020-07-30 13:29:01+00:00,204.2731,16.45,12.81,47.84626,-54.09684
2020-07-30 13:39:01+00:00,204.8248,16.6,12.81,47.84626,-54.09684
2020-07-30 13:49:01+00:00,203.3714,16.7,12.81,47.84626,-54.09684
2020-07-30 13:59:01+00:00,203.0598,16.5,12.81,47.84626,-54.09684
2020-07-30 14:09:01+00:00,207.8365,16.3,12.81,47.84626,-54.09684
2020-07-30 14:19:01+00:00,209.5414,16.42,13.13,47.84626,-54.09684
2020-07-30 14:29:01+00:00,203.9548,16.5,13.13,47.84626,-54.09684
2020-07-30 14:39:01+00:00,202.8981,16.4,13.13,47.84626,-54.09684
2020-07-30 14:49:01+00:00,205.9197,16.29,13.13,47.84626,-54.09684
2020-07-30 14:59:01+00:00,203.8131,16.38,13.13,47.84626,-54.09684
2020-07-30 15:09:01+00:00,200.6731,16.3,13.13,47.84626,-54.09684
2020-07-30 15:19:01+00:00,206.2215,16.1,13.21,47.84626,-54.09684
2020-07-30 15:29:01+00:00,212.5615,16.2,13.21,47.84626,-54.09684
2020-07-30 15:39:01+00:00,216.5565,16.0,13.21,47.84626,-54.09684
2020-07-30 15:49:01+00:00,219.9131,15.8,13.21,47.84626,-54.09684
2020-07-30 15:59:01+00:00,224.438,15.8,13.21,47.84626,-54.09684
2020-07-30 16:09:01+00:00,231.9248,15.8,13.21,47.84626,-54.09684
2020-07-30 16:19:01+00:00,239.4598,15.6,13.37,47.84626,-54.09684
2020-07-30 16:29:01+00:00,240.2647,15.5,13.37,47.84626,-54.09684
2020-07-30 16:39:01+00:00,243.3381,15.5,13.37,47.84626,-54.09684
2020-07-30 16:49:01+00:00,250.6598,15.38,13.37,47.84626,-54.09684
2020-07-30 16:59:01+00:00,256.9881,15.1,13.37,47.84626,-54.09684
2020-07-30 17:09:01+00:00,260.093,15.23,13.37,47.84626,-54.09684
2020-07-30 17:19:01+00:00,269.7263,14.95,13.53,47.84626,-54.09684
2020-07-30 17:29:01+00:00,279.6964,14.89,13.53,47.84626,-54.09684
2020-07-30 17:39:01+00:00,285.4414,14.8,13.53,47.84626,-54.09684
2020-07-30 17:49:01+00:00,290.273,14.8,13.53,47.84626,-54.09684
2020-07-30 17:59:01+00:00,298.2313,14.8,13.53,47.84626,-54.09684
2020-07-30 18:09:01+00:00,303.5397,14.8,13.53,47.84626,-54.09684
2020-07-30 18:19:01+00:00,309.3397,14.7,13.76,47.84626,-54.09684
2020-07-30 18:29:01+00:00,316.3447,14.74,13.76,47.84626,-54.09684
2020-07-30 18:39:01+00:00,322.1064,14.85,13.76,47.84626,-54.09684
2020-07-30 18:49:01+00:00,327.0031,14.7,13.76,47.84626,-54.09684
2020-07-30 18:59:01+00:00,331.2195,14.49,13.76,47.84626,-54.09684
2020-07-30 19:09:01+00:00,334.1547,14.5,13.76,47.84626,-54.09684
2020-07-30 19:19:01+00:00,335.9346,14.6,13.92,47.84626,-54.09684
2020-07-30 19:29:01+00:00,335.6545,14.6,13.92,47.84626,-54.09684
2020-07-30 19:39:01+00:00,342.5113,14.6,13.92,47.84626,-54.09684
2020-07-30 19:49:01+00:00,345.0181,14.6,13.92,47.84626,-54.09684
2020-07-30 19:59:01+00:00,343.7578,14.66,13.92,47.84626,-54.09684
2020-07-30 20:09:01+00:00,342.92800000000005,14.7,13.92,47.84626,-54.09684
2020-07-30 20:19:01+00:00,345.2263,14.7,13.68,47.84626,-54.09684
2020-07-30 20:29:01+00:00,344.7529,14.78,13.68,47.84626,-54.09684
2020-07-30 20:39:01+00:00,347.3263,14.8,13.68,47.84626,-54.09684
2020-07-30 20:49:01+00:00,349.3813,14.8,13.68,47.84626,-54.09684
2020-07-30 20:59:01+00:00,349.88300000000015,14.75,13.68,47.84626,-54.09684
2020-07-30 21:09:01+00:00,344.2664,14.78,13.68,47.84626,-54.09684
2020-07-30 21:19:01+00:00,342.233,14.79,13.6,47.84626,-54.09684
2020-07-30 21:29:01+00:00,339.7814,14.8,13.6,47.84626,-54.09684
2020-07-30 21:39:01+00:00,335.348,14.8,13.6,47.84626,-54.09684
2020-07-30 21:49:01+00:00,331.6229,14.8,13.6,47.84626,-54.09684
2020-07-30 21:59:01+00:00,331.80300000000005,14.8,13.6,47.84626,-54.09684
2020-07-30 22:09:01+00:00,328.7530000000001,14.8,13.6,47.84626,-54.09684
2020-07-30 22:19:01+00:00,322.8796,14.99,13.21,47.84626,-54.09684
2020-07-30 22:29:01+00:00,317.2147,15.1,13.21,47.84626,-54.09684
2020-07-30 22:39:01+00:00,312.1797,15.1,13.21,47.84626,-54.09684
2020-07-30 22:49:01+00:00,303.6013,15.2,13.21,47.84626,-54.09684
2020-07-30 22:59:01+00:00,295.7596,15.48,13.21,47.84626,-54.09684
2020-07-30 23:09:01+00:00,291.2214,15.63,13.21,47.84626,-54.09684
2020-07-30 23:19:01+00:00,282.7497,15.87,12.89,47.84626,-54.09684
2020-07-30 23:29:01+00:00,271.5831,16.13,12.89,47.84626,-54.09684
2020-07-30 23:39:01+00:00,265.1581,16.3,12.89,47.84626,-54.09684
2020-07-30 23:49:01+00:00,263.9964,16.4,12.89,47.84626,-54.09684
2020-07-30 23:59:01+00:00,259.1031,16.34,12.89,47.84626,-54.09684
